Theta_e
360 361 359 353 329 321 317 318 328 325 328 335 333 328 329 334 330 324 350 352 353 354 358 359 360 359 359 360 360 361 361 361 361 362 362 362 363 364 364 364 363 363 362 361 361 360 360 359 359
361 355 352 343 320 313 317 325 324 329 333 337 337 334 332 330 339 342 346 352 355 354 357 359 360 360 361 361 360 361 361 360 363 363 363 363 363 364 363 362 363 363 362 361 360 359 359 359 358
356 353 344 328 321 314 316 324 328 333 336 333 333 337 334 333 341 344 351 353 354 356 357 361 360 362 361 361 361 362 362 362 362 364 363 363 364 363 362 361 361 362 361 360 359 359 359 358 358
350 349 342 320 315 321 321 327 332 333 336 335 335 331 339 345 344 350 354 356 355 357 358 361 362 362 363 362 363 363 364 363 363 362 363 363 362 362 361 362 361 360 360 359 358 358 357 357 356
351 339 320 316 317 322 328 331 334 332 333 333 335 330 336 345 351 353 354 354 354 355 358 362 364 363 363 362 363 363 363 363 363 363 362 362 362 361 361 361 359 358 358 358 358 358 358 358 358
337 333 315 311 317 323 328 332 333 333 335 334 333 334 337 348 350 353 355 354 354 354 358 360 361 363 363 362 363 363 363 363 363 362 362 362 361 360 360 359 357 357 357 358 359 359 357 356 356
331 325 316 315 318 321 326 334 331 333 333 331 336 332 340 344 352 354 354 354 354 358 356 359 361 363 363 364 362 362 362 362 362 362 362 361 360 360 359 358 357 358 359 360 359 359 356 354 355
335 327 318 317 316 319 328 331 335 333 333 340 338 330 334 344 351 352 353 353 354 356 356 361 364 362 360 361 363 364 364 363 362 363 362 361 360 359 359 359 358 357 358 359 359 359 356 356 356
335 322 318 318 317 322 331 330 336 339 337 336 338 335 341 346 349 348 348 350 353 354 355 359 360 360 361 361 362 363 363 363 363 363 362 360 358 360 357 359 356 355 359 359 359 359 357 356 356
329 322 318 325 325 325 330 330 334 333 333 334 337 340 344 345 346 344 345 347 349 352 354 356 356 358 360 357 363 361 360 359 360 360 363 359 361 362 359 360 359 360 358 359 357 356 358 358 356
330 323 324 325 328 330 331 330 334 330 328 333 336 339 342 342 344 344 345 348 350 353 353 354 356 359 359 358 358 358 358 357 359 364 363 360 360 362 361 362 360 363 360 357 359 358 357 357 357
324 325 324 326 331 329 329 332 329 330 330 336 340 343 342 341 341 342 344 347 349 352 354 356 359 360 360 359 357 357 356 357 356 356 363 359 358 359 359 359 360 360 360 360 360 358 360 358 360
324 323 325 326 330 331 333 331 328 330 337 338 342 342 341 341 342 344 345 347 349 351 354 356 360 363 363 363 357 356 356 355 356 356 358 357 357 359 360 362 358 359 357 358 360 358 357 358 357
325 323 325 326 329 332 330 331 329 332 340 338 340 340 341 341 343 344 345 346 348 350 352 356 359 361 363 362 363 359 357 356 356 355 356 361 359 359 365 357 357 358 357 360 360 358 357 357 356
323 320 325 326 330 330 331 327 328 335 339 337 338 340 340 342 344 346 348 348 351 351 353 355 358 360 363 363 363 361 358 357 356 357 362 363 363 362 367 356 355 355 361 363 363 358 357 355 353
320 320 317 326 330 331 330 320 330 337 337 336 337 338 339 342 344 348 349 350 352 353 354 356 355 358 362 363 362 360 359 359 359 360 360 364 363 367 366 369 354 356 360 358 357 357 349 345 344
319 313 315 322 329 328 327 321 331 337 336 336 336 337 338 341 345 348 348 351 353 354 356 356 357 356 359 363 363 364 366 368 361 371 362 363 363 362 360 357 357 362 358 356 355 349 349 342 340
313 314 316 318 325 327 325 324 329 335 335 335 337 336 337 340 343 348 350 352 354 356 357 358 357 360 363 361 364 368 371 371 362 361 368 364 361 362 361 357 358 359 359 357 353 352 346 341 341
318 316 315 320 327 325 324 324 328 334 334 334 336 337 337 340 345 349 351 353 354 356 357 359 359 363 363 360 358 357 356 368 361 363 366 364 364 363 363 356 357 358 356 355 357 348 341 337 343
316 315 315 321 326 325 323 323 327 330 334 335 335 337 338 340 343 347 350 351 353 355 358 360 361 363 364 361 361 359 359 358 359 361 364 365 364 364 360 361 358 360 353 357 354 347 336 340 345
316 315 316 317 324 326 322 320 324 327 332 336 337 337 339 341 340 344 347 350 352 354 357 360 363 364 366 366 363 363 363 362 359 359 359 361 365 364 364 361 359 359 355 346 348 346 343 334 341
312 319 318 318 319 313 324 310 319 325 328 332 335 336 337 340 343 344 345 348 351 353 358 361 364 366 365 369 367 365 356 352 352 354 354 356 362 362 362 363 361 361 351 348 345 346 343 343 335
313 318 318 319 318 317 318 314 318 323 324 328 333 335 335 337 339 340 342 345 350 352 354 359 364 368 370 371 370 362 360 356 356 356 359 361 362 363 359 363 360 357 345 349 350 348 346 341 338
316 315 316 317 316 309 315 314 314 319 325 327 332 335 335 335 337 339 341 344 346 350 352 356 363 370 369 368 367 366 366 361 355 358 355 350 350 356 361 360 358 353 347 350 347 348 345 344 344
313 312 306 305 306 306 317 312 316 321 324 327 327 333 336 337 336 338 339 340 344 346 350 353 365 369 368 365 365 365 365 364 363 361 356 351 346 346 353 356 354 350 353 351 348 347 345 344 341
309 311 306 301 302 306 315 308 314 325 327 327 328 331 335 338 339 338 341 342 344 347 352 355 363 366 366 363 368 369 367 361 361 362 356 350 345 345 353 351 352 352 352 350 348 343 343 344 342
309 308 315 310 311 307 310 314 319 322 323 325 326 328 331 336 339 339 341 344 345 349 355 360 364 368 368 363 369 366 366 364 362 364 364 354 354 347 350 351 350 351 350 348 348 342 344 344 343
311 315 307 310 303 301 306 309 310 317 319 322 323 326 330 334 338 340 341 344 347 349 353 356 362 366 364 362 363 362 363 365 365 363 362 357 353 350 349 349 349 349 348 347 349 343 344 344 339
307 308 311 311 309 303 302 306 318 318 320 320 322 325 327 330 336 339 342 344 348 350 351 354 357 359 360 364 365 366 361 362 362 361 360 356 352 350 349 349 347 347 345 347 347 346 342 342 343
311 309 311 306 307 309 308 308 320 321 321 322 323 324 326 329 333 338 342 344 345 349 350 352 354 356 358 363 367 363 364 362 360 358 354 352 349 348 347 345 345 345 346 347 345 343 340 340 340
Wind_Speed
18 14 5 8 7 6 13 8 11 8 6 11 8 4 9 14 14 12 17 19 16 15 16 16 13 14 14 12 11 12 14 13 12 10 11 11 10 11 11 10 10 11 11 10 10 9 10 9 9
14 9 7 6 6 5 9 7 9 10 11 12 10 7 7 13 12 18 14 17 19 17 15 14 12 12 12 12 12 13 14 14 12 10 10 9 9 10 9 8 9 10 9 9 9 9 8 8 8
12 10 6 4 5 7 9 7 10 12 9 5 5 10 5 9 16 11 17 15 13 11 12 12 11 13 12 13 12 13 14 14 12 10 10 9 9 8 7 8 9 9 8 7 8 7 7 7 7
7 6 6 1 11 6 10 9 13 11 8 4 10 12 10 11 10 10 15 13 11 12 11 12 11 12 14 13 12 13 13 13 11 10 10 9 7 7 7 7 7 7 6 6 6 6 6 6 5
5 4 4 9 10 8 11 10 10 8 7 8 10 12 13 8 12 17 14 12 14 14 13 13 11 12 13 14 13 13 13 12 11 10 8 7 6 6 6 6 5 5 4 4 5 5 5 5 5
6 5 5 10 12 9 8 8 7 7 9 9 17 17 9 14 16 16 15 14 14 15 13 14 11 12 13 14 13 12 12 11 10 9 7 6 5 4 4 4 2 2 3 4 5 5 5 4 5
7 8 8 10 11 11 10 8 5 8 10 10 15 13 12 16 16 15 15 13 13 16 12 13 13 13 12 13 12 11 11 10 9 7 6 5 4 3 1 1 2 3 4 6 6 6 5 4 4
6 7 5 6 7 13 10 8 8 8 8 13 9 8 15 18 17 15 14 13 13 13 11 12 11 13 12 12 11 10 9 9 8 6 5 4 3 3 4 4 1 4 6 6 6 6 4 4 3
5 8 4 5 5 11 13 9 8 7 13 8 5 9 20 21 19 16 14 13 12 12 11 13 14 12 11 10 10 9 9 8 7 8 6 7 6 3 3 7 4 6 7 7 7 6 4 4 4
10 9 3 5 7 13 14 9 11 9 13 11 9 15 21 21 19 18 17 15 15 14 12 11 12 12 10 8 10 8 8 9 8 6 5 6 1 2 6 5 5 7 4 5 4 3 7 11 2
10 10 4 5 7 16 15 10 10 8 13 13 13 19 22 21 19 18 16 15 15 14 12 12 11 11 11 7 7 5 5 5 5 5 5 4 3 3 4 2 4 2 5 4 3 6 3 4 5
10 3 1 7 9 14 15 13 9 10 6 12 13 20 22 21 18 17 16 16 15 14 13 12 12 10 11 7 7 7 6 6 5 6 6 4 5 4 4 2 4 3 3 4 3 4 4 5 3
12 5 4 4 11 11 13 12 10 12 3 12 16 22 22 20 19 17 16 15 14 14 14 13 12 12 10 8 7 6 6 6 6 5 7 6 5 4 4 3 4 3 5 4 3 4 5 7 6
9 5 2 6 12 12 13 13 11 12 7 16 19 22 21 20 19 16 15 15 15 15 15 14 14 13 12 10 9 7 7 6 7 6 6 8 7 5 1 6 6 3 5 3 3 4 5 5 5
7 9 6 9 12 10 12 13 13 16 13 16 19 19 19 19 19 18 16 16 16 14 14 14 14 14 13 12 10 8 7 8 7 7 8 8 8 8 6 6 5 5 4 6 2 5 5 5 5
14 12 11 12 14 9 15 14 16 17 16 17 19 18 18 19 19 17 16 16 15 14 15 14 13 14 14 12 10 8 8 7 7 5 6 6 9 9 6 4 6 5 4 4 4 4 4 5 5
13 14 15 12 14 10 15 7 17 16 17 17 18 19 18 17 18 18 17 16 15 15 14 15 14 14 14 13 10 10 8 5 7 4 7 8 7 7 6 5 6 5 5 6 4 4 4 6 6
17 18 16 13 16 12 17 9 4 15 18 17 18 18 18 18 20 18 18 17 16 14 14 14 13 13 12 9 9 7 7 7 7 7 6 6 6 8 6 5 5 4 5 5 2 4 7 5 4
15 15 14 13 14 16 14 13 11 11 16 18 18 19 20 20 19 19 19 18 17 15 15 15 14 14 10 10 9 8 8 6 7 8 8 9 8 10 7 7 5 5 7 2 1 4 3 6 4
17 18 17 13 9 15 13 15 13 13 16 17 19 20 20 20 19 19 19 19 19 17 16 16 16 15 13 10 8 7 6 7 6 7 5 7 7 8 7 6 4 3 2 2 2 3 5 2 3
21 20 18 14 12 15 9 14 16 16 17 16 20 20 22 21 21 21 21 20 19 19 18 17 17 16 15 14 9 7 6 6 6 7 6 7 8 7 6 5 4 4 5 2 2 2 3 4 2
23 21 17 15 14 13 15 11 13 16 18 19 20 21 22 23 21 21 22 22 21 19 18 19 18 17 16 16 12 12 9 9 6 5 4 4 5 5 5 5 5 4 3 2 1 1 4 4 3
22 17 16 18 18 17 15 10 12 5 13 18 22 23 23 23 22 23 23 22 22 21 19 18 18 17 16 15 14 12 13 9 7 6 3 7 5 7 7 6 5 4 5 3 2 2 2 2 5
19 12 15 18 16 19 21 15 13 13 15 16 16 22 24 24 23 22 21 21 21 20 20 19 19 17 17 17 17 16 14 12 9 7 7 7 6 7 7 8 7 6 4 4 3 3 3 3 3
21 18 12 15 16 15 20 17 15 8 12 14 14 19 22 23 23 22 23 22 21 22 21 19 18 18 18 19 18 18 17 14 13 10 9 6 6 6 7 7 7 7 6 4 3 4 4 4 5
28 26 15 24 16 14 17 15 18 19 20 19 15 11 17 23 23 24 25 23 23 23 22 20 18 19 20 19 18 15 16 11 11 11 8 7 6 6 8 8 7 7 7 6 5 6 6 5 6
27 29 24 23 20 18 17 15 22 13 17 17 16 14 15 20 24 26 26 25 24 23 22 21 20 19 20 20 15 16 14 15 11 10 10 8 7 6 7 9 8 8 8 7 7 7 6 6 6
28 22 25 21 24 22 20 21 12 18 19 19 17 14 17 18 21 23 25 26 24 24 22 22 21 21 20 20 18 16 16 15 13 12 12 10 10 10 11 10 9 9 8 8 9 7 7 6 6
22 20 26 22 21 18 19 17 15 14 12 12 12 13 13 14 18 21 22 24 24 22 22 22 22 22 20 19 18 16 16 17 14 14 14 14 11 10 10 12 8 8 10 10 10 9 8 8 8
25 25 27 18 25 19 21 16 18 20 18 21 20 15 10 9 11 17 20 22 23 24 22 22 22 21 22 20 18 19 17 17 17 16 15 14 14 13 11 7 7 12 13 11 10 11 9 9 9
Wind_Direction
159 178 200 230 210 168 139 157 136 140 108 81 60 98 79 17 14 85 120 127 135 127 127 135 136 135 132 133 136 129 134 137 132 130 115 112 102 93 92 89 86 79 74 68 63 57 55 53 46
168 197 222 274 249 135 93 116 115 74 95 116 109 149 49 69 88 114 122 134 141 139 136 138 143 144 140 134 130 125 129 128 132 125 116 111 105 95 95 91 83 76 70 66 58 48 44 46 45
182 213 262 283 321 64 101 117 106 111 130 140 105 58 48 100 118 116 119 139 139 126 123 122 146 136 140 130 134 134 131 131 134 128 123 122 110 107 104 92 82 76 72 64 57 48 35 35 42
186 196 226 310 93 74 101 114 128 130 115 100 110 91 81 101 118 120 137 141 136 137 134 125 137 137 134 137 134 130 131 135 138 138 136 126 123 117 105 88 78 73 64 54 42 31 23 23 17
213 248 176 77 79 87 111 115 152 120 109 124 119 114 104 117 118 129 136 143 144 135 121 136 132 132 137 139 133 134 135 142 146 143 137 138 130 113 97 83 75 64 54 27 8 3 355 4 353
213 260 105 90 105 107 120 140 141 117 120 114 118 124 91 126 138 141 145 157 140 125 141 131 134 142 148 150 144 142 148 148 147 145 147 146 138 120 102 97 66 36 359 352 341 349 351 359 344
281 258 77 96 111 136 139 151 160 130 140 136 137 121 128 149 138 144 150 146 143 137 131 145 150 146 143 145 152 154 152 155 155 155 154 151 154 128 104 358 343 334 328 331 342 353 360 1 354
274 274 177 124 142 113 136 154 120 147 112 120 142 152 158 147 149 148 146 149 148 136 151 145 151 156 158 154 157 157 156 161 158 161 164 180 186 193 205 249 192 334 323 324 330 339 349 349 352
254 251 169 131 153 126 151 143 151 102 141 165 134 147 140 146 152 152 156 155 146 152 170 162 161 159 162 160 147 159 163 162 169 181 191 206 235 171 201 60 346 313 306 304 304 311 312 271 199
232 278 68 118 119 142 160 155 146 166 155 150 138 121 142 155 162 162 165 160 166 162 175 169 167 160 170 169 153 179 169 187 197 194 180 232 273 297 322 311 275 266 282 268 249 261 244 241 327
206 282 96 148 152 140 159 155 154 162 176 167 157 152 156 163 170 169 170 170 170 170 179 171 170 168 184 170 184 187 191 192 188 212 219 222 263 218 242 275 234 306 168 306 214 195 244 29 333
240 240 245 130 163 160 163 150 159 168 140 158 158 160 161 171 174 175 174 174 174 177 181 172 173 181 197 183 197 200 201 201 217 192 205 235 233 212 253 276 353 239 344 327 316 340 4 286 311
231 184 244 183 172 173 154 165 146 171 155 161 152 164 170 178 178 181 181 175 177 183 184 181 184 187 196 204 203 221 220 199 218 213 201 241 253 241 249 289 271 287 267 269 306 311 327 324 292
213 245 166 210 174 178 178 161 170 169 160 156 165 173 178 182 182 181 187 186 187 190 188 187 191 191 200 206 210 217 221 225 225 226 224 216 251 248 270 257 256 302 300 318 321 322 327 299 301
181 188 166 183 167 170 191 176 210 147 161 163 175 181 184 188 185 188 192 194 194 194 192 195 196 192 200 207 209 217 219 218 226 224 217 237 236 245 255 255 280 271 211 246 297 283 284 276 281
199 220 195 160 169 159 197 190 196 157 171 173 178 183 189 192 192 193 194 198 193 201 197 198 199 195 200 208 210 223 220 225 222 240 239 243 250 264 267 256 263 262 271 301 253 261 310 312 313
201 213 216 156 195 161 201 250 161 175 185 179 184 187 193 190 199 195 198 198 198 198 196 202 205 204 201 205 214 219 224 226 248 217 244 231 247 248 256 263 266 257 267 244 268 306 327 321 298
196 233 185 177 190 190 196 208 144 183 197 193 191 194 196 196 201 197 199 198 198 194 199 203 202 208 203 206 213 218 218 235 246 232 245 239 248 257 243 236 253 245 217 242 319 332 343 305 328
219 207 207 200 158 202 208 216 197 194 213 211 198 199 201 204 200 198 199 198 200 199 196 201 204 200 206 201 209 214 219 214 234 260 242 245 234 244 247 256 237 233 234 347 288 309 299 314 14
234 218 218 162 172 215 210 231 222 206 213 217 214 204 210 208 204 199 200 203 201 201 203 203 209 207 208 207 215 235 233 238 245 228 252 252 249 229 235 254 244 209 145 230 311 346 314 290 30
223 229 221 197 178 221 250 239 229 217 208 219 221 218 210 214 209 203 203 206 206 203 205 206 208 210 210 221 208 206 236 245 235 236 241 227 237 240 230 222 255 169 272 277 301 344 333 329 329
219 220 230 212 187 221 198 250 206 206 203 217 216 215 216 210 212 210 206 207 208 208 206 208 209 209 211 209 219 215 225 233 229 242 245 258 228 226 196 199 197 204 271 6 224 313 328 295 329
229 221 226 236 209 238 177 247 261 189 227 211 217 211 214 214 211 211 207 206 207 206 207 206 209 209 213 203 220 207 224 230 232 223 216 236 188 215 203 189 184 195 248 156 276 254 283 289 316
220 237 233 233 233 225 227 209 238 213 223 232 219 213 211 209 208 210 210 204 204 205 207 206 203 206 204 207 205 217 224 226 224 202 204 209 201 192 209 189 182 187 199 208 235 250 232 277 310
210 208 204 215 219 233 212 233 233 249 221 227 238 206 212 209 208 204 206 201 202 204 205 206 201 204 204 206 207 210 217 216 218 213 216 218 207 201 168 192 192 185 198 189 240 230 270 247 279
209 212 221 213 220 219 238 231 232 241 260 269 259 250 198 209 208 208 203 204 202 205 203 205 199 203 202 203 207 207 211 214 214 208 232 211 211 204 157 196 201 211 193 193 190 222 244 225 243
200 218 227 242 222 235 222 214 248 242 261 261 253 227 223 204 209 208 205 204 203 204 204 201 200 201 202 201 202 206 205 216 209 214 206 202 194 183 189 193 199 214 208 200 197 234 223 242 238
230 204 219 229 232 226 239 232 219 222 230 237 236 227 222 215 210 211 209 204 203 203 204 203 200 201 200 203 202 206 202 202 204 195 200 197 180 185 179 191 188 198 207 205 216 233 218 234 252
208 230 215 232 227 240 227 233 219 241 242 243 245 222 228 224 212 211 208 209 200 204 202 203 203 203 202 201 198 200 199 196 191 199 195 182 187 173 178 177 176 201 213 208 220 243 257 229 239
209 214 215 224 221 234 251 241 224 223 231 247 247 255 284 255 231 211 205 204 201 202 205 200 205 203 204 201 195 196 192 189 194 193 186 182 170 178 175 200 165 194 211 220 219 231 242 234 243